Location: Grange Rosano
(44.4500°N, 6.9667°E)
Time: 07:52:15
(UTC+00:00)

SL-16 R/B - Pass Details

Date: 26 May 2022
Orbit: 985 x 1006 km, 99.6° (Epoch: 01 July)

Event Time Altitude Azimuth Distance (km) Brightness Sun altitude
Exits shadow 02:59:48 11° 232° (SW) 2,720 4.1 -8.7°
Maximum altitude 03:03:34 17° 270° (W) 2,273 4.0 -8.2°
Drops below altitude 10° 03:07:32 10° 310° (NW) 2,776 4.8 -7.7°
Sets 03:11:01 0° 330° (NNW) 3,735 5.7 -7.2°
